OSCAR 3

Satellite information

Favourite Embed

Satellite Type and Status

PAYLOADIN ORBIT

Key statistics

Satellite OSCAR 3 at a glance.

Uptime

21974

Days in orbit

Revolutions

≈ 14.1

Per day

Orbit

LEO

Low Earth Orbit

Inclination

70.1

Latest

Satellite identification and parameters

Extended collection of information and parameters for OSCAR 3.

Object identification

Identified? True

Debris? False

Object name: OSCAR 3

International designator: 1965-016F

Object number (NORAD): 1293

Object ID (CCSDS): 1293

Country: UNITED STATES OF AMERICA (US)

Current information (Y/N): Y

RCS size: MEDIUM

Orbital parameters

Period: 102.266 minutes

Inclination: 70.0739 deg

SMA: 7244.025 km

Apoapsis: 879.194 km

Periapsis: 852.586 km

RAAN: 203.2369 deg

Eccentricy: 0.0018366

Argument of periapsis: 326.1454 deg

Mean anomaly: 33.8484 deg

Mean motion: 14.08097905 rev/day

Mean motion (dot): 0.00000609 rev/day2

B* drag term: 0.00038824 1/REarth

Two-line elements (TLE)

Creation date: May 7, 2025, 3:14 a.m.

Reference frame: TEME

Reference center: EARTH

Epoch: May 6, 2025, 2:27 p.m. UTC

TLE line 0: 0 OSCAR 3

TLE line 1: 1 01293U 65016F 25126.60261859 .00000609 00000-0 38824-3 0 9999

TLE line 2: 2 01293 70.0739 203.2369 0018366 326.1454 33.8484 14.08097905 74843

Live tracking on map

Real-time ground track for satellite OSCAR 3.

In-orbit conjunctions

A list of the most updated potential collisions computed for object OSCAR 3.

Target Orbit TCA Probability of collision Miss distance Type
FENGYUN 1C DEB SSO 2025-04-03 09:22:28 0.0001663559 753.0 (m) DEBRIS
CZ-6A DEB SSO 2024-12-27 05:20:39 0.0001528466 121.0 (m) DEBRIS
COSMOS 2251 DEB LEO 2024-06-01 08:55:15 0.0002454116 758.0 (m) DEBRIS

Associated space launch

Poppy was the follow-on ELINT system, which succeeded the Grab ELINT satellite system.

OSCAR 3 was lifted into orbit during the mission ‘Thor SLV-2 Agena D | Poppy 6A,B,C,D’, on board a Thor SLV-2 Agena D space rocket.

The launch took place on March 9, 1965, 6:29 p.m. from Space Launch Complex 2W.

For more information about the launch, click the button.

Launch to space Thor SLV-2 Agena D | Poppy 6A,B,C,D
Thor SLV-2 Agena D | Poppy 6A,B,C,D

Agency: N/A

Status: Launch Successful

Launch date: March 9, 1965, 6:29 p.m. UTC

Rocket: Thor SLV-2 Agena D

Launch pad: Space Launch Complex 2W

Location: Vandenberg SFB, CA, USA

...

Latest news about this satellite

There are no fresh news available about this satellite. Check back as we update our databases every day.


Newsletter sign-up

Weekly statistics, charts and insights to help you stay on top of the space industry.